K7WBM Weather Reports


Display with metric or nautical units.
time (UTC)temp
F
wind
direction
speed
MPH
gust
MPH
rain 1hr
in
rain 24hr
in
rain mn
in
humidity
%
barometer
mb
20260502163038 66 135 0.0 4.0 0.00 0.00 0.00 33 1014.9
20260502161542 65 0 1.0 4.0 0.00 0.00 0.00 31 1014.8
20260502151537 56 0 0.0 0.0 0.00 0.00 0.00 45 1014.7
20260502123038 42 0 0.0 1.0 0.00 0.00 0.00 59 1013.7
20260502121537 42 0 0.0 0.0 0.00 0.00 0.00 57 1013.6
20260502114539 42 0 0.0 0.0 0.00 0.00 0.00 63 1013.6
20260502113043 42 0 0.0 1.0 0.00 0.00 0.00 60 1013.7
20260502111534 42 340 0.0 1.0 0.00 0.00 0.00 61 1013.7
20260502110037 41 0 0.0 1.0 0.00 0.00 0.00 60 1013.6
20260502104536 41 0 0.0 0.0 0.00 0.00 0.00 59 1013.6
20260502103059 40 0 0.0 0.0 0.00 0.00 0.00 55 1013.6
20260502101548 41 0 0.0 0.0 0.00 0.00 0.00 51 1013.5
20260502070037 47 0 0.0 0.0 0.00 0.00 0.00 48 1014.3
20260502064537 47 0 0.0 0.0 0.00 0.00 0.00 47 1014.2
20260502063045 49 0 0.0 0.0 0.00 0.00 0.00 44 1014.2
20260502061539 50 0 0.0 0.0 0.00 0.00 0.00 44 1014.2
20260502060039 51 0 0.0 0.0 0.00 0.00 0.00 40 1014.2
20260502054550 52 0 0.0 0.0 0.00 0.00 0.00 42 1014.3
20260502053046 52 0 0.0 0.0 0.00 0.00 0.00 37 1014.3
20260502051538 52 0 0.0 0.0 0.00 0.00 0.00 35 1014.3
20260502050041 53 0 0.0 0.0 0.00 0.00 0.00 33 1014.2
20260502044538 55 0 0.0 0.0 0.00 0.00 0.00 29 1014.2
20260502043038 55 0 0.0 0.0 0.00 0.00 0.00 28 1014.2
20260502041539 54 0 0.0 0.0 0.00 0.00 0.00 30 1014.3
20260502040036 54 0 0.0 0.0 0.00 0.00 0.00 31 1014.2
20260502034538 55 0 0.0 0.0 0.00 0.00 0.00 29 1014.0
20260502033041 57 0 0.0 0.0 0.00 0.00 0.00 28 1013.8
20260502031538 58 0 0.0 0.0 0.00 0.00 0.00 28 1013.7
20260502030044 59 0 0.0 0.0 0.00 0.00 0.00 26 1013.7
20260502024537 61 0 0.0 0.0 0.00 0.00 0.00 26 1013.7
20260502023036 64 0 0.0 0.0 0.00 0.00 0.00 25 1013.7
20260502021559 67 0 0.0 0.0 0.00 0.00 0.00 23 1013.7
20260502020037 71 0 0.0 1.0 0.00 0.00 0.00 21 1013.7
20260502014538 72 0 0.0 2.0 0.00 0.00 0.00 17 1013.7
20260502013037 73 108 0.0 2.0 0.00 0.00 0.00 21 1013.8
20260502011536 75 0 0.0 3.0 0.00 0.00 0.00 20 1014.0
20260502010041 77 0 0.0 2.0 0.00 0.00 0.00 21 1014.2
20260502004537 76 0 0.0 4.0 0.00 0.00 0.00 16 1014.3
20260502003037 77 0 0.0 2.0 0.00 0.00 0.00 14 1014.3
20260502001537 76 120 0.0 4.0 0.00 0.00 0.00 16 1014.4
20260502000036 76 0 0.0 4.0 0.00 0.00 0.00 13 1014.5
20260501234538 76 0 0.0 4.0 0.00 0.00 0.00 16 1014.7
20260501233050 76 0 0.0 3.0 0.00 0.00 0.00 13 1014.8
20260501231538 76 0 0.0 4.0 0.00 0.00 0.00 17 1014.9
20260501230039 76 137 0.0 4.0 0.00 0.00 0.00 18 1015.0
20260501221537 74 131 2.0 5.0 0.00 0.00 0.00 18 1015.5
20260501213039 75 0 1.0 5.0 0.00 0.00 0.00 17 1016.3
20260501211547 73 0 1.0 4.0 0.00 0.00 0.00 18 1016.3
20260501210236 73 72 2.0 7.0 0.00 0.00 0.00 19 1016.6
20260501200038 71 97 2.0 5.0 0.00 0.00 0.00 22 1017.3
20260501194537 71 109 0.0 6.0 0.00 0.00 0.00 27 1017.5
20260501193045 71 247 1.0 4.0 0.00 0.00 0.00 28 1017.6
20260501191537 70 354 1.0 7.0 0.00 0.00 0.00 24 1017.7
20260501190034 70 139 1.0 4.0 0.00 0.00 0.00 26 1017.9
20260501184538 70 344 1.0 5.0 0.00 0.00 0.00 23 1018.1
20260501183037 69 284 1.0 5.0 0.00 0.00 0.00 27 1018.2
20260501181536 69 0 0.0 5.0 0.00 0.00 0.00 25 1018.4
20260501180037 68 79 0.0 3.0 0.00 0.00 0.00 27 1018.4
20260501174538 68 0 1.0 4.0 0.00 0.00 0.00 26 1018.5
20260501173039 67 86 0.0 2.0 0.00 0.00 0.00 28 1018.6